CADRE

Last updated on Jan. 4, 2017, 12:15 a.m. UTC

1 41475U 98067HV  17003.74787607  .12518598  12537-4  55989-3 0  9998
2 41475  51.6110 110.0165 0004040 312.3134  47.7551 16.43344525 36494

Satellite is not in orbit.